Retour au catalogue

AETHER-4

ActifCommunicationsSSO
NORAD 67375·PAYLOAD·🇨🇦 Canada

Lancé Jan 11, 2026 depuis Vandenberg Space Force Base

Loading…

Prochains Passages (prochaines 24 heures)

TLE

FraisSource: Space-Track

Époque: Sep 14, 2026, 06:02 UTC

1 67375U 26004N   26257.25185728  .00000476  00000-0  60641-4 0  9998
2 67375  97.8103 254.2743 0000830 163.5445 196.5798 14.85935988 36525

Suivez AETHER-4 en temps réel avec AllMySat

Download on the App Store